Location: Hemaruka
(51.7801°N, 111.0917°W)
Time: 09:14:19
(UTC+00:00)

NOAA 15 - Pass Details

Date: 12 December 2023
Orbit: 797 x 810 km, 98.6° (Epoch: 02 March)

Event Time Altitude Azimuth Distance (km) Brightness Sun altitude
Rises 01:19:29 0° 143° (SE) 3,316 7.6 -18.2°
Reaches altitude 10° 01:21:53 10° 138° (SE) 2,387 6.8 -18.5°
Maximum altitude 01:26:55 47° 66° (ENE) 1,065 4.8 -19.3°
Drops below altitude 10° 01:31:57 10° 354° (N) 2,394 7.0 -20.0°
Sets 01:34:21 0° 349° (N) 3,327 7.8 -20.4°
